| time (UTC) | temp F | wind direction | speed knots | gust knots | rain 1hr in | rain 24hr in | rain mn in | humidity % | barometer mb |
| 20260507075503 | 33 | 224 | 0.0 | 0.9 | 0.00 | 0.08 | 0.00 | 1 | 1017.0 |
| 20260507075001 | 33 | 224 | 0.0 | 2.6 | 0.00 | 0.08 | 0.00 | 1 | 1017.0 |
| 20260507074604 | 34 | 224 | 0.0 | 2.6 | 0.00 | 0.08 | 0.00 | 1 | 1017.0 |
| 20260507074057 | 35 | 224 | 1.7 | 2.6 | 0.00 | 0.08 | 0.00 | 1 | 1017.0 |
| 20260507073556 | 35 | 224 | 1.7 | 2.6 | 0.00 | 0.08 | 0.00 | 1 | 1017.0 |
| 20260507073106 | 35 | 224 | 0.0 | 1.7 | 0.00 | 0.08 | 0.00 | 1 | 1017.0 |
| 20260507072554 | 35 | 224 | 0.0 | 2.6 | 0.00 | 0.08 | 0.00 | 1 | 1017.1 |
| 20260507072052 | 36 | 224 | 0.0 | 2.6 | 0.00 | 0.08 | 0.00 | 1 | 1017.0 |
| 20260507071601 | 36 | 224 | 0.9 | 2.6 | 0.00 | 0.08 | 0.00 | 1 | 1017.0 |
| 20260507071051 | 36 | 224 | 0.0 | 2.6 | 0.00 | 0.08 | 0.00 | 1 | 1016.8 |
| 20260507070548 | 35 | 224 | 1.7 | 2.6 | 0.00 | 0.08 | 0.00 | 1 | 1016.9 |
| 20260507070046 | 35 | 168 | 0.0 | 2.6 | 0.00 | 0.08 | 0.00 | 5 | 1016.8 |
| 20260507065544 | 36 | 168 | 0.9 | 2.6 | 0.00 | 0.15 | 0.00 | 8 | 1016.9 |
| 20260507065046 | 36 | 168 | 0.9 | 2.6 | 0.00 | 0.15 | 0.00 | 8 | 1016.8 |
| 20260507064546 | 36 | 168 | 0.9 | 3.5 | 0.00 | 0.15 | 0.00 | 20 | 1016.7 |
| 20260507064040 | 36 | 168 | 0.0 | 3.5 | 0.00 | 0.15 | 0.00 | 31 | 1016.7 |
| 20260507063539 | 37 | 168 | 2.6 | 3.5 | 0.00 | 0.15 | 0.00 | 27 | 1016.6 |
| 20260507063040 | 37 | 168 | 0.0 | 1.7 | 0.00 | 0.15 | 0.00 | 30 | 1016.7 |
| 20260507062535 | 38 | 168 | 0.0 | 3.5 | 0.00 | 0.15 | 0.00 | 36 | 1016.9 |
| 20260507062034 | 38 | 168 | 1.7 | 3.5 | 0.00 | 0.15 | 0.00 | 35 | 1016.6 |
| 20260507061535 | 39 | 168 | 0.9 | 1.7 | 0.00 | 0.15 | 0.00 | 33 | 1016.7 |
| 20260507061033 | 39 | 168 | 0.0 | 1.7 | 0.00 | 0.15 | 0.00 | 34 | 1016.7 |
| 20260507060530 | 39 | 168 | 0.9 | 1.7 | 0.00 | 0.15 | 0.00 | 33 | 1016.6 |
| 20260507060029 | 40 | 168 | 0.0 | 0.0 | 0.00 | 0.15 | 0.00 | 29 | 1016.5 |
| 20260507055529 | 40 | 168 | 0.0 | 0.9 | 0.00 | 0.15 | 0.15 | 27 | 1016.5 |
| 20260507055030 | 40 | 168 | 0.0 | 1.7 | 0.00 | 0.15 | 0.15 | 24 | 1016.5 |
| 20260507054526 | 40 | 168 | 0.0 | 0.9 | 0.00 | 0.15 | 0.15 | 22 | 1016.4 |
| 20260507054024 | 40 | 168 | 0.0 | 0.0 | 0.00 | 0.15 | 0.15 | 20 | 1016.4 |
| 20260507053523 | 40 | 168 | 0.0 | 0.0 | 0.00 | 0.15 | 0.15 | 20 | 1016.3 |
| 20260507053023 | 40 | 168 | 0.0 | 0.9 | 0.00 | 0.15 | 0.15 | 21 | 1016.3 |
| 20260507052520 | 40 | 168 | 0.0 | 2.6 | 0.00 | 0.15 | 0.15 | 21 | 1016.3 |
| 20260507052019 | 40 | 168 | 0.9 | 2.6 | 0.00 | 0.15 | 0.15 | 23 | 1016.2 |
| 20260507051518 | 40 | 168 | 0.0 | 0.9 | 0.00 | 0.15 | 0.15 | 26 | 1016.2 |
| 20260507051015 | 39 | 168 | 0.0 | 0.9 | 0.00 | 0.15 | 0.15 | 36 | 1016.2 |
| 20260507050514 | 40 | 168 | 0.0 | 1.7 | 0.00 | 0.15 | 0.15 | 44 | 1016.3 |
| 20260507050013 | 40 | 168 | 0.0 | 1.7 | 0.00 | 0.15 | 0.15 | 45 | 1016.2 |
| 20260507045511 | 41 | 168 | 0.0 | 2.6 | 0.00 | 0.15 | 0.15 | 43 | 1016.2 |
| 20260507045009 | 42 | 168 | 0.0 | 2.6 | 0.00 | 0.15 | 0.15 | 44 | 1016.2 |
| 20260507044508 | 42 | 168 | 0.9 | 3.5 | 0.00 | 0.15 | 0.15 | 46 | 1016.2 |
| 20260507044008 | 42 | 168 | 1.7 | 3.5 | 0.00 | 0.15 | 0.15 | 43 | 1016.0 |
| 20260507043507 | 42 | 209 | 0.0 | 4.3 | 0.00 | 0.15 | 0.15 | 40 | 1016.0 |
| 20260507043006 | 41 | 176 | 3.5 | 4.3 | 0.00 | 0.15 | 0.15 | 39 | 1016.0 |
| 20260507042504 | 41 | 171 | 1.7 | 4.3 | 0.00 | 0.15 | 0.15 | 36 | 1015.9 |
| 20260507042001 | 40 | 175 | 2.6 | 6.1 | 0.00 | 0.15 | 0.15 | 37 | 1015.7 |
| 20260507041059 | 40 | 132 | 2.6 | 4.3 | 0.00 | 0.15 | 0.15 | 44 | 1015.7 |
| 20260507040600 | 40 | 214 | 0.9 | 3.5 | 0.00 | 0.15 | 0.15 | 44 | 1015.6 |
| 20260507040105 | 41 | 214 | 0.9 | 1.7 | 0.00 | 0.15 | 0.15 | 44 | 1015.6 |
| 20260507035555 | 41 | 214 | 0.0 | 2.6 | 0.00 | 0.15 | 0.15 | 46 | 1015.5 |
| 20260507035053 | 41 | 215 | 1.7 | 2.6 | 0.00 | 0.15 | 0.15 | 47 | 1015.6 |
| 20260507034557 | 42 | 214 | 0.9 | 2.6 | 0.00 | 0.15 | 0.15 | 46 | 1015.6 |
| 20260507034050 | 41 | 215 | 0.9 | 2.6 | 0.00 | 0.15 | 0.15 | 47 | 1015.5 |
| 20260507033549 | 42 | 215 | 0.9 | 2.6 | 0.00 | 0.15 | 0.15 | 49 | 1015.4 |
| 20260507033048 | 42 | 215 | 0.0 | 2.6 | 0.00 | 0.15 | 0.15 | 50 | 1015.3 |
| 20260507032547 | 43 | 215 | 0.0 | 2.6 | 0.00 | 0.15 | 0.15 | 50 | 1015.2 |
| 20260507032044 | 43 | 215 | 0.0 | 3.5 | 0.00 | 0.15 | 0.15 | 51 | 1015.1 |
| 20260507031543 | 44 | 215 | 0.9 | 3.5 | 0.00 | 0.15 | 0.15 | 52 | 1015.0 |
| 20260507031041 | 45 | 249 | 0.0 | 1.7 | 0.00 | 0.15 | 0.15 | 53 | 1015.0 |
| 20260507030541 | 45 | 249 | 0.0 | 1.7 | 0.00 | 0.15 | 0.15 | 53 | 1015.0 |
| 20260507030039 | 45 | 249 | 0.0 | 1.7 | 0.00 | 0.15 | 0.15 | 53 | 1015.0 |
| 20260507025538 | 46 | 249 | 0.0 | 1.7 | 0.00 | 0.15 | 0.15 | 53 | 1014.9 |
| 20260507025036 | 47 | 249 | 0.9 | 2.6 | 0.00 | 0.15 | 0.15 | 54 | 1014.9 |
| 20260507024536 | 48 | 249 | 0.9 | 2.6 | 0.00 | 0.15 | 0.15 | 53 | 1014.9 |
| 20260507024035 | 49 | 249 | 0.9 | 2.6 | 0.00 | 0.15 | 0.15 | 52 | 1014.9 |
| 20260507023532 | 50 | 249 | 0.0 | 2.6 | 0.00 | 0.15 | 0.15 | 51 | 1014.8 |
| 20260507023032 | 51 | 249 | 0.9 | 2.6 | 0.00 | 0.15 | 0.15 | 49 | 1014.8 |
| 20260507022532 | 53 | 249 | 0.9 | 2.6 | 0.00 | 0.15 | 0.15 | 46 | 1014.8 |
| 20260507022031 | 55 | 249 | 0.9 | 5.2 | 0.00 | 0.15 | 0.15 | 42 | 1014.7 |
| 20260507021529 | 58 | 247 | 0.9 | 5.2 | 0.00 | 0.15 | 0.15 | 39 | 1014.7 |
| 20260507021028 | 58 | 1 | 0.0 | 2.6 | 0.00 | 0.15 | 0.15 | 35 | 1014.7 |
| 20260507020527 | 59 | 1 | 0.0 | 2.6 | 0.00 | 0.15 | 0.15 | 34 | 1014.7 |
| 20260507020025 | 59 | 1 | 0.0 | 2.6 | 0.00 | 0.15 | 0.15 | 33 | 1014.7 |
| 20260507015526 | 59 | 360 | 0.9 | 3.5 | 0.00 | 0.15 | 0.15 | 31 | 1014.7 |
| 20260507015022 | 60 | 6 | 1.7 | 3.5 | 0.00 | 0.15 | 0.15 | 31 | 1014.7 |
| 20260507014521 | 60 | 211 | 1.7 | 4.3 | 0.00 | 0.15 | 0.15 | 31 | 1014.7 |
| 20260507014020 | 60 | 6 | 1.7 | 7.0 | 0.00 | 0.15 | 0.15 | 31 | 1014.8 |
| 20260507013518 | 60 | 359 | 3.5 | 7.8 | 0.00 | 0.15 | 0.15 | 29 | 1014.7 |
| 20260507013016 | 60 | 9 | 3.5 | 7.8 | 0.00 | 0.15 | 0.15 | 30 | 1014.7 |
| 20260507012518 | 61 | 350 | 3.5 | 8.7 | 0.00 | 0.15 | 0.15 | 30 | 1014.7 |
| 20260507012013 | 61 | 26 | 4.3 | 8.7 | 0.00 | 0.15 | 0.15 | 29 | 1014.7 |
| 20260507011523 | 61 | 18 | 4.3 | 8.7 | 0.00 | 0.15 | 0.15 | 29 | 1014.7 |
| 20260507011010 | 61 | 4 | 4.3 | 9.6 | 0.00 | 0.15 | 0.15 | 30 | 1014.7 |
| 20260507010509 | 61 | 345 | 4.3 | 9.6 | 0.00 | 0.15 | 0.15 | 30 | 1014.7 |
| 20260507010008 | 61 | 355 | 2.6 | 8.7 | 0.00 | 0.15 | 0.15 | 30 | 1014.7 |
| 20260507005512 | 61 | 37 | 4.3 | 9.6 | 0.00 | 0.15 | 0.15 | 29 | 1014.7 |
| 20260507005004 | 61 | 65 | 3.5 | 7.8 | 0.00 | 0.15 | 0.15 | 29 | 1014.7 |
| 20260507004505 | 61 | 41 | 5.2 | 8.7 | 0.00 | 0.15 | 0.15 | 29 | 1014.7 |
| 20260507004002 | 61 | 17 | 5.2 | 8.7 | 0.00 | 0.15 | 0.15 | 29 | 1014.7 |
| 20260507003600 | 62 | 24 | 5.2 | 9.6 | 0.00 | 0.15 | 0.15 | 29 | 1014.7 |
| 20260507003059 | 62 | 20 | 6.1 | 9.6 | 0.00 | 0.15 | 0.15 | 29 | 1014.7 |
| 20260507002557 | 61 | 20 | 4.3 | 10.4 | 0.00 | 0.15 | 0.15 | 29 | 1014.5 |
| 20260507002057 | 61 | 59 | 7.0 | 10.4 | 0.00 | 0.15 | 0.15 | 28 | 1014.6 |
| 20260507001613 | 61 | 28 | 6.1 | 12.2 | 0.00 | 0.15 | 0.15 | 29 | 1014.6 |
| 20260507001052 | 61 | 3 | 7.8 | 12.2 | 0.00 | 0.15 | 0.15 | 29 | 1014.6 |
| 20260507000553 | 61 | 32 | 6.1 | 13.0 | 0.00 | 0.15 | 0.15 | 29 | 1014.6 |
| 20260507000057 | 62 | 27 | 7.8 | 12.2 | 0.00 | 0.15 | 0.15 | 29 | 1014.5 |
| 20260506235549 | 62 | 37 | 7.8 | 11.3 | 0.00 | 0.15 | 0.15 | 29 | 1014.6 |
| 20260506235050 | 61 | 22 | 6.1 | 11.3 | 0.00 | 0.15 | 0.15 | 29 | 1014.7 |
| 20260506234547 | 61 | 55 | 7.8 | 11.3 | 0.00 | 0.15 | 0.15 | 29 | 1014.8 |
| 20260506234044 | 61 | 46 | 7.0 | 12.2 | 0.00 | 0.15 | 0.15 | 29 | 1014.8 |
| 20260506233543 | 61 | 22 | 8.7 | 13.9 | 0.00 | 0.15 | 0.15 | 29 | 1014.9 |
| 20260506233041 | 61 | 22 | 7.8 | 13.0 | 0.00 | 0.15 | 0.15 | 29 | 1014.9 |
| 20260506232539 | 61 | 22 | 7.0 | 13.0 | 0.00 | 0.15 | 0.15 | 29 | 1014.9 |
| 20260506232038 | 61 | 53 | 8.7 | 13.0 | 0.00 | 0.15 | 0.15 | 29 | 1014.9 |
| 20260506231537 | 61 | 41 | 8.7 | 13.9 | 0.00 | 0.15 | 0.15 | 29 | 1015.0 |
| 20260506231035 | 61 | 345 | 7.8 | 13.9 | 0.00 | 0.15 | 0.15 | 30 | 1015.0 |
| 20260506230533 | 61 | 31 | 8.7 | 13.9 | 0.00 | 0.15 | 0.15 | 30 | 1014.9 |
| 20260506230031 | 61 | 42 | 7.0 | 14.8 | 0.00 | 0.15 | 0.15 | 30 | 1015.0 |
| 20260506225531 | 60 | 10 | 11.3 | 14.8 | 0.00 | 0.15 | 0.15 | 31 | 1015.0 |
| 20260506225030 | 60 | 14 | 9.6 | 14.8 | 0.00 | 0.15 | 0.15 | 29 | 1015.1 |
| 20260506224530 | 60 | 44 | 8.7 | 15.6 | 0.00 | 0.15 | 0.15 | 30 | 1015.1 |
| 20260506224026 | 60 | 9 | 8.7 | 13.9 | 0.00 | 0.15 | 0.15 | 30 | 1015.2 |
| 20260506223526 | 60 | 35 | 8.7 | 19.1 | 0.00 | 0.15 | 0.15 | 31 | 1015.3 |
| 20260506223024 | 59 | 4 | 7.8 | 20.9 | 0.00 | 0.15 | 0.15 | 32 | 1015.2 |
| 20260506222522 | 59 | 13 | 12.2 | 20.9 | 0.00 | 0.15 | 0.15 | 30 | 1015.2 |
| 20260506222020 | 59 | 359 | 9.6 | 16.5 | 0.00 | 0.15 | 0.15 | 30 | 1015.2 |
| 20260506221518 | 59 | 2 | 11.3 | 17.4 | 0.00 | 0.15 | 0.15 | 30 | 1015.3 |
| 20260506221017 | 60 | 9 | 10.4 | 17.4 | 0.00 | 0.15 | 0.15 | 30 | 1015.3 |
| 20260506220516 | 59 | 8 | 7.8 | 13.9 | 0.00 | 0.15 | 0.15 | 30 | 1015.3 |
| 20260506220015 | 59 | 359 | 8.7 | 16.5 | 0.00 | 0.15 | 0.15 | 30 | 1015.3 |
| 20260506215513 | 59 | 3 | 9.6 | 16.5 | 0.00 | 0.15 | 0.15 | 31 | 1015.4 |
| 20260506215012 | 59 | 12 | 8.7 | 13.9 | 0.00 | 0.15 | 0.15 | 31 | 1015.4 |
| 20260506214510 | 59 | 26 | 9.6 | 18.2 | 0.00 | 0.15 | 0.15 | 32 | 1015.5 |
| 20260506214009 | 58 | 12 | 10.4 | 18.2 | 0.00 | 0.15 | 0.15 | 33 | 1015.6 |
| 20260506213507 | 58 | 14 | 8.7 | 14.8 | 0.00 | 0.15 | 0.15 | 32 | 1015.7 |
| 20260506213008 | 58 | 328 | 7.0 | 14.8 | 0.00 | 0.15 | 0.15 | 32 | 1015.7 |
| 20260506212508 | 58 | 345 | 8.7 | 14.8 | 0.00 | 0.15 | 0.15 | 33 | 1015.7 |
| 20260506212004 | 58 | 23 | 9.6 | 16.5 | 0.00 | 0.15 | 0.15 | 32 | 1015.7 |
| 20260506211501 | 58 | 350 | 9.6 | 16.5 | 0.00 | 0.15 | 0.15 | 33 | 1015.6 |
| 20260506211103 | 57 | 323 | 8.7 | 17.4 | 0.00 | 0.15 | 0.15 | 31 | 1015.7 |
| 20260506210601 | 57 | 345 | 8.7 | 17.4 | 0.00 | 0.15 | 0.15 | 32 | 1015.7 |
| 20260506210119 | 57 | 309 | 10.4 | 14.8 | 0.00 | 0.15 | 0.15 | 33 | 1015.6 |
| 20260506205556 | 57 | 350 | 8.7 | 16.5 | 0.00 | 0.15 | 0.15 | 32 | 1015.7 |
| 20260506205054 | 57 | 330 | 9.6 | 16.5 | 0.00 | 0.15 | 0.15 | 30 | 1015.7 |
| 20260506204553 | 58 | 16 | 6.1 | 14.8 | 0.00 | 0.15 | 0.15 | 34 | 1015.6 |
| 20260506204051 | 57 | 359 | 9.6 | 14.8 | 0.00 | 0.15 | 0.15 | 33 | 1015.6 |
| 20260506203550 | 57 | 11 | 8.7 | 17.4 | 0.00 | 0.15 | 0.15 | 32 | 1015.6 |
| 20260506203137 | 56 | 28 | 8.7 | 15.6 | 0.00 | 0.15 | 0.15 | 33 | 1015.7 |
| 20260506202550 | 56 | 41 | 9.6 | 16.5 | 0.00 | 0.15 | 0.15 | 31 | 1015.6 |
| 20260506202048 | 56 | 31 | 11.3 | 16.5 | 0.00 | 0.15 | 0.15 | 33 | 1015.6 |
| 20260506201548 | 56 | 336 | 8.7 | 16.5 | 0.00 | 0.15 | 0.15 | 33 | 1015.7 |
| 20260506201043 | 55 | 309 | 7.8 | 16.5 | 0.00 | 0.15 | 0.15 | 31 | 1015.7 |
| 20260506200542 | 56 | 337 | 8.7 | 17.4 | 0.00 | 0.15 | 0.15 | 32 | 1015.7 |
| 20260506200048 | 56 | 345 | 11.3 | 20.0 | 0.00 | 0.15 | 0.15 | 33 | 1015.6 |
| 20260506195539 | 56 | 359 | 8.7 | 17.4 | 0.00 | 0.15 | 0.15 | 31 | 1015.7 |
| 20260506195038 | 55 | 24 | 10.4 | 17.4 | 0.00 | 0.15 | 0.15 | 33 | 1015.5 |
| 20260506194537 | 55 | 3 | 11.3 | 17.4 | 0.00 | 0.15 | 0.15 | 32 | 1015.7 |
| 20260506194035 | 55 | 359 | 12.2 | 16.5 | 0.00 | 0.15 | 0.15 | 31 | 1015.7 |
| 20260506193534 | 55 | 336 | 8.7 | 17.4 | 0.00 | 0.15 | 0.15 | 32 | 1015.6 |
| 20260506193032 | 55 | 47 | 11.3 | 17.4 | 0.00 | 0.15 | 0.15 | 32 | 1015.6 |
| 20260506192533 | 55 | 329 | 11.3 | 17.4 | 0.00 | 0.15 | 0.15 | 32 | 1015.6 |
| 20260506192030 | 54 | 359 | 11.3 | 18.2 | 0.00 | 0.15 | 0.15 | 32 | 1015.5 |
| 20260506191529 | 55 | 311 | 11.3 | 18.2 | 0.00 | 0.15 | 0.15 | 32 | 1015.5 |
| 20260506191026 | 55 | 16 | 12.2 | 18.2 | 0.00 | 0.15 | 0.15 | 34 | 1015.5 |
| 20260506190525 | 54 | 1 | 10.4 | 19.1 | 0.00 | 0.15 | 0.15 | 34 | 1015.5 |
| 20260506190033 | 54 | 350 | 12.2 | 19.1 | 0.00 | 0.15 | 0.15 | 31 | 1015.6 |
| 20260506185521 | 54 | 328 | 9.6 | 20.0 | 0.00 | 0.15 | 0.15 | 31 | 1015.5 |
| 20260506185020 | 54 | 309 | 12.2 | 20.0 | 0.00 | 0.15 | 0.15 | 31 | 1015.5 |
| 20260506184519 | 54 | 319 | 12.2 | 18.2 | 0.00 | 0.15 | 0.15 | 32 | 1015.7 |
| 20260506184018 | 53 | 345 | 8.7 | 16.5 | 0.00 | 0.15 | 0.15 | 33 | 1015.6 |
| 20260506183516 | 53 | 19 | 12.2 | 16.5 | 0.00 | 0.15 | 0.15 | 31 | 1015.7 |
| 20260506183015 | 53 | 1 | 9.6 | 16.5 | 0.00 | 0.15 | 0.15 | 31 | 1015.7 |
| 20260506182513 | 53 | 345 | 10.4 | 20.0 | 0.00 | 0.15 | 0.15 | 32 | 1015.5 |
| 20260506182017 | 53 | 336 | 12.2 | 20.0 | 0.00 | 0.15 | 0.15 | 32 | 1015.5 |
| 20260506181510 | 54 | 340 | 11.3 | 19.1 | 0.00 | 0.15 | 0.15 | 33 | 1015.5 |
| 20260506181009 | 53 | 345 | 9.6 | 19.1 | 0.00 | 0.15 | 0.15 | 33 | 1015.4 |
| 20260506180510 | 53 | 310 | 9.6 | 20.0 | 0.00 | 0.15 | 0.15 | 33 | 1015.5 |
| 20260506180006 | 53 | 331 | 12.2 | 22.6 | 0.00 | 0.15 | 0.15 | 32 | 1015.4 |
| 20260506175507 | 53 | 359 | 12.2 | 22.6 | 0.00 | 0.15 | 0.15 | 34 | 1015.4 |
| 20260506175003 | 52 | 2 | 13.0 | 18.2 | 0.00 | 0.15 | 0.15 | 33 | 1015.5 |
| 20260506174611 | 53 | 18 | 13.0 | 18.2 | 0.00 | 0.15 | 0.15 | 33 | 1015.3 |
| 20260506174502 | 53 | 323 | 12.2 | 20.0 | 0.00 | 0.15 | 0.15 | 35 | 1015.4 |
| 20260506174101 | 53 | 332 | 10.4 | 20.0 | 0.00 | 0.15 | 0.15 | 37 | 1015.3 |
| 20260506173559 | 52 | 33 | 10.4 | 19.1 | 0.00 | 0.15 | 0.15 | 38 | 1015.2 |
| 20260506173058 | 52 | 7 | 13.0 | 19.1 | 0.00 | 0.15 | 0.15 | 39 | 1015.2 |
| 20260506172555 | 52 | 350 | 13.0 | 17.4 | 0.00 | 0.15 | 0.15 | 37 | 1015.0 |
| 20260506172054 | 52 | 337 | 11.3 | 17.4 | 0.00 | 0.15 | 0.15 | 38 | 1014.9 |
| 20260506171557 | 52 | 309 | 11.3 | 20.9 | 0.00 | 0.15 | 0.15 | 38 | 1014.9 |
| 20260506171052 | 52 | 345 | 12.2 | 21.7 | 0.00 | 0.15 | 0.15 | 37 | 1014.8 |
| 20260506170550 | 52 | 345 | 11.3 | 20.0 | 0.00 | 0.15 | 0.15 | 38 | 1014.6 |
| 20260506170049 | 52 | 37 | 13.0 | 20.0 | 0.00 | 0.15 | 0.15 | 36 | 1014.5 |
| 20260506165546 | 52 | 33 | 11.3 | 20.0 | 0.00 | 0.15 | 0.15 | 37 | 1014.4 |
| 20260506165045 | 52 | 359 | 12.2 | 20.9 | 0.00 | 0.15 | 0.15 | 37 | 1014.3 |
| 20260506164548 | 52 | 338 | 13.9 | 20.9 | 0.00 | 0.15 | 0.15 | 37 | 1014.3 |
| 20260506164042 | 52 | 326 | 10.4 | 19.1 | 0.00 | 0.15 | 0.15 | 40 | 1014.1 |
| 20260506163540 | 52 | 339 | 11.3 | 20.9 | 0.00 | 0.15 | 0.15 | 40 | 1014.2 |
| 20260506163055 | 52 | 8 | 9.6 | 20.9 | 0.00 | 0.15 | 0.15 | 41 | 1014.1 |
| 20260506162537 | 52 | 336 | 11.3 | 18.2 | 0.00 | 0.15 | 0.15 | 43 | 1013.9 |
| 20260506162037 | 52 | 337 | 11.3 | 19.1 | 0.00 | 0.15 | 0.15 | 41 | 1013.9 |
| 20260506161537 | 52 | 332 | 11.3 | 20.9 | 0.00 | 0.15 | 0.15 | 42 | 1013.8 |
| 20260506161035 | 52 | 339 | 12.2 | 20.9 | 0.00 | 0.15 | 0.15 | 43 | 1013.9 |
| 20260506160531 | 52 | 341 | 10.4 | 18.2 | 0.01 | 0.15 | 0.15 | 46 | 1013.7 |
| 20260506160030 | 51 | 12 | 11.3 | 19.1 | 0.01 | 0.15 | 0.15 | 43 | 1013.7 |
| 20260506155528 | 51 | 338 | 12.2 | 19.1 | 0.01 | 0.15 | 0.15 | 43 | 1013.7 |
| 20260506155027 | 51 | 360 | 12.2 | 18.2 | 0.01 | 0.15 | 0.15 | 44 | 1013.6 |
| 20260506154534 | 51 | 5 | 10.4 | 15.6 | 0.01 | 0.15 | 0.15 | 43 | 1013.5 |
| 20260506154024 | 51 | 28 | 9.6 | 17.4 | 0.01 | 0.15 | 0.15 | 44 | 1013.6 |
| 20260506153523 | 51 | 311 | 11.3 | 20.9 | 0.01 | 0.15 | 0.15 | 42 | 1013.6 |
| 20260506153025 | 51 | 323 | 11.3 | 20.9 | 0.01 | 0.15 | 0.15 | 42 | 1013.5 |
| 20260506152520 | 51 | 307 | 8.7 | 14.8 | 0.01 | 0.15 | 0.15 | 43 | 1013.5 |
| 20260506152018 | 50 | 345 | 10.4 | 14.8 | 0.01 | 0.15 | 0.15 | 42 | 1013.4 |
| 20260506151517 | 50 | 359 | 9.6 | 15.6 | 0.01 | 0.15 | 0.15 | 41 | 1013.3 |
| 20260506151016 | 50 | 317 | 10.4 | 20.0 | 0.01 | 0.15 | 0.15 | 40 | 1013.3 |
| 20260506150518 | 50 | 323 | 10.4 | 17.4 | 0.00 | 0.14 | 0.14 | 40 | 1013.2 |
| 20260506150012 | 50 | 311 | 11.3 | 18.2 | 0.00 | 0.14 | 0.14 | 39 | 1013.2 |
| 20260506145511 | 50 | 350 | 11.3 | 18.2 | 0.00 | 0.14 | 0.14 | 39 | 1013.2 |
| 20260506145009 | 50 | 5 | 10.4 | 17.4 | 0.00 | 0.14 | 0.14 | 40 | 1013.0 |
| 20260506144507 | 49 | 359 | 10.4 | 19.1 | 0.00 | 0.14 | 0.14 | 39 | 1012.9 |
| 20260506144009 | 49 | 339 | 12.2 | 19.1 | 0.00 | 0.14 | 0.14 | 39 | 1012.7 |
| 20260506143507 | 49 | 338 | 10.4 | 16.5 | 0.00 | 0.14 | 0.14 | 42 | 1012.8 |
| 20260506143004 | 49 | 307 | 9.6 | 15.6 | 0.00 | 0.14 | 0.14 | 48 | 1012.7 |
| 20260506142503 | 49 | 345 | 9.6 | 13.9 | 0.00 | 0.14 | 0.14 | 49 | 1012.7 |
| 20260506142000 | 49 | 328 | 9.6 | 13.9 | 0.00 | 0.14 | 0.14 | 50 | 1012.7 |
| 20260506141558 | 48 | 328 | 9.6 | 13.9 | 0.00 | 0.14 | 0.14 | 52 | 1012.7 |
| 20260506141057 | 48 | 295 | 6.1 | 13.0 | 0.00 | 0.14 | 0.14 | 52 | 1012.7 |
| 20260506140558 | 48 | 325 | 6.1 | 13.0 | 0.00 | 0.14 | 0.14 | 53 | 1012.7 |
| 20260506140056 | 48 | 309 | 8.7 | 13.0 | 0.00 | 0.14 | 0.14 | 53 | 1012.7 |
| 20260506135553 | 47 | 315 | 7.0 | 12.2 | 0.00 | 0.14 | 0.14 | 53 | 1012.7 |
| 20260506135051 | 47 | 290 | 7.8 | 12.2 | 0.00 | 0.14 | 0.14 | 53 | 1012.7 |
| 20260506134550 | 47 | 289 | 6.1 | 10.4 | 0.00 | 0.14 | 0.14 | 52 | 1012.6 |
| 20260506134048 | 46 | 299 | 6.1 | 10.4 | 0.00 | 0.14 | 0.14 | 50 | 1012.6 |
| 20260506133547 | 46 | 302 | 6.1 | 11.3 | 0.00 | 0.14 | 0.14 | 50 | 1012.5 |
| 20260506133048 | 46 | 313 | 7.0 | 11.3 | 0.00 | 0.14 | 0.14 | 49 | 1012.4 |
| 20260506132545 | 45 | 303 | 6.1 | 10.4 | 0.00 | 0.14 | 0.14 | 44 | 1012.3 |
| 20260506132043 | 45 | 338 | 6.1 | 9.6 | 0.00 | 0.14 | 0.14 | 38 | 1012.3 |
| 20260506131541 | 45 | 338 | 5.2 | 9.6 | 0.00 | 0.14 | 0.14 | 23 | 1012.2 |
| 20260506131039 | 45 | 299 | 4.3 | 8.7 | 0.00 | 0.14 | 0.14 | 1 | 1012.0 |
| 20260506130538 | 44 | 301 | 3.5 | 8.7 | 0.00 | 0.14 | 0.14 | 1 | 1012.0 |
| 20260506130040 | 44 | 303 | 5.2 | 8.7 | 0.00 | 0.14 | 0.14 | 1 | 1011.8 |
| 20260506125536 | 44 | 323 | 4.3 | 8.7 | 0.00 | 0.14 | 0.14 | 1 | 1011.7 |
| 20260506125033 | 43 | 310 | 5.2 | 8.7 | 0.00 | 0.14 | 0.14 | 1 | 1011.7 |
| 20260506124532 | 44 | 318 | 5.2 | 8.7 | 0.00 | 0.14 | 0.14 | 1 | 1011.7 |
| 20260506124031 | 44 | 323 | 5.2 | 8.7 | 0.00 | 0.14 | 0.14 | 1 | 1011.5 |
| 20260506123530 | 43 | 297 | 5.2 | 8.7 | 0.00 | 0.14 | 0.14 | 1 | 1011.5 |
| 20260506123028 | 43 | 295 | 5.2 | 7.8 | 0.00 | 0.14 | 0.14 | 1 | 1011.4 |
| 20260506122527 | 43 | 308 | 5.2 | 7.8 | 0.00 | 0.14 | 0.14 | 1 | 1011.4 |
| 20260506122025 | 43 | 328 | 3.5 | 7.8 | 0.00 | 0.14 | 0.14 | 1 | 1011.3 |
| 20260506121523 | 44 | 306 | 3.5 | 8.7 | 0.00 | 0.14 | 0.14 | 1 | 1011.2 |
| 20260506121024 | 44 | 350 | 5.2 | 8.7 | 0.00 | 0.14 | 0.14 | 1 | 1011.1 |
| 20260506120520 | 45 | 338 | 4.3 | 10.4 | 0.00 | 0.14 | 0.14 | 1 | 1011.1 |
| 20260506120019 | 45 | 303 | 6.1 | 13.0 | 0.00 | 0.14 | 0.14 | 1 | 1011.0 |
| 20260506115516 | 45 | 291 | 8.7 | 13.0 | 0.00 | 0.14 | 0.14 | 1 | 1011.0 |
| 20260506115015 | 45 | 311 | 8.7 | 13.9 | 0.00 | 0.14 | 0.14 | 1 | 1010.9 |
| 20260506114515 | 45 | 299 | 9.6 | 13.0 | 0.00 | 0.14 | 0.14 | 1 | 1010.8 |
| 20260506114013 | 45 | 297 | 8.7 | 15.6 | 0.00 | 0.14 | 0.14 | 1 | 1010.8 |
| 20260506113512 | 45 | 298 | 9.6 | 15.6 | 0.00 | 0.14 | 0.14 | 1 | 1010.8 |
| 20260506113010 | 45 | 311 | 10.4 | 14.8 | 0.00 | 0.14 | 0.14 | 1 | 1010.8 |
| 20260506112509 | 45 | 313 | 9.6 | 14.8 | 0.00 | 0.14 | 0.14 | 1 | 1010.7 |
| 20260506112007 | 45 | 301 | 9.6 | 13.9 | 0.00 | 0.14 | 0.14 | 1 | 1010.7 |
| 20260506111506 | 45 | 302 | 10.4 | 13.9 | 0.00 | 0.14 | 0.14 | 1 | 1010.6 |
| 20260506111003 | 45 | 293 | 8.7 | 13.9 | 0.00 | 0.14 | 0.14 | 1 | 1010.6 |
| 20260506110502 | 45 | 310 | 6.1 | 9.6 | 0.00 | 0.14 | 0.14 | 1 | 1010.5 |
| 20260506110002 | 45 | 309 | 4.3 | 10.4 | 0.00 | 0.14 | 0.14 | 1 | 1010.4 |
| 20260506105600 | 45 | 304 | 4.3 | 10.4 | 0.00 | 0.14 | 0.14 | 1 | 1010.4 |
| 20260506105057 | 45 | 285 | 2.6 | 8.7 | 0.00 | 0.14 | 0.14 | 1 | 1010.2 |
| 20260506104607 | 45 | 307 | 3.5 | 9.6 | 0.00 | 0.14 | 0.14 | 1 | 1010.2 |
| 20260506104055 | 45 | 311 | 4.3 | 8.7 | 0.00 | 0.14 | 0.14 | 1 | 1010.0 |
| 20260506103553 | 44 | 294 | 4.3 | 7.8 | 0.00 | 0.14 | 0.14 | 1 | 1009.8 |
| 20260506103054 | 44 | 319 | 3.5 | 5.2 | 0.00 | 0.14 | 0.14 | 1 | 1009.7 |
| 20260506102550 | 43 | 315 | 2.6 | 6.1 | 0.00 | 0.14 | 0.14 | 1 | 1009.5 |
| 20260506102048 | 43 | 333 | 2.6 | 3.5 | 0.00 | 0.14 | 0.14 | 1 | 1009.4 |
| 20260506101558 | 43 | 333 | 0.0 | 0.0 | 0.00 | 0.14 | 0.14 | 1 | 1009.2 |
| 20260506101045 | 43 | 333 | 0.0 | 0.0 | 0.00 | 0.14 | 0.14 | 1 | 1009.1 |
| 20260506100546 | 43 | 333 | 0.0 | 0.0 | 0.00 | 0.14 | 0.14 | 1 | 1009.1 |
| 20260506100043 | 42 | 333 | 0.0 | 0.0 | 0.00 | 0.14 | 0.14 | 1 | 1008.9 |
| 20260506095542 | 42 | 333 | 0.0 | 0.0 | 0.00 | 0.15 | 0.14 | 1 | 1008.9 |
| 20260506095040 | 42 | 333 | 0.0 | 0.0 | 0.00 | 0.15 | 0.14 | 1 | 1008.9 |
| 20260506094539 | 42 | 333 | 0.0 | 0.0 | 0.00 | 0.15 | 0.14 | 1 | 1008.8 |
| 20260506094037 | 42 | 333 | 0.0 | 0.0 | 0.00 | 0.15 | 0.14 | 1 | 1008.7 |
| 20260506093537 | 42 | 333 | 0.0 | 0.0 | 0.00 | 0.15 | 0.14 | 1 | 1008.7 |
| 20260506093035 | 41 | 333 | 0.0 | 0.0 | 0.00 | 0.15 | 0.14 | 1 | 1008.7 |
| 20260506092533 | 41 | 35 | 0.0 | 0.0 | 0.00 | 0.15 | 0.14 | 1 | 1008.4 |
| 20260506092033 | 41 | 35 | 0.0 | 1.7 | 0.00 | 0.15 | 0.14 | 1 | 1008.3 |
| 20260506091530 | 41 | 35 | 0.0 | 1.7 | 0.00 | 0.15 | 0.14 | 1 | 1008.1 |
| 20260506091030 | 41 | 35 | 0.0 | 1.7 | 0.00 | 0.15 | 0.14 | 1 | 1008.0 |
| 20260506090527 | 41 | 35 | 0.0 | 3.5 | 0.00 | 0.15 | 0.14 | 1 | 1008.0 |
| 20260506090026 | 41 | 35 | 0.9 | 3.5 | 0.00 | 0.15 | 0.14 | 1 | 1008.1 |
| 20260506085525 | 41 | 35 | 1.7 | 3.5 | 0.00 | 0.16 | 0.14 | 1 | 1008.0 |
| 20260506085023 | 42 | 35 | 0.0 | 3.5 | 0.00 | 0.16 | 0.14 | 1 | 1007.9 |
| 20260506084533 | 43 | 5 | 0.9 | 2.6 | 0.00 | 0.16 | 0.14 | 1 | 1007.8 |
| 20260506084021 | 43 | 345 | 0.9 | 2.6 | 0.00 | 0.16 | 0.14 | 1 | 1007.7 |
| 20260506083521 | 42 | 345 | 0.0 | 2.6 | 0.00 | 0.16 | 0.14 | 1 | 1007.7 |
| 20260506083022 | 42 | 345 | 0.0 | 3.5 | 0.00 | 0.16 | 0.14 | 1 | 1007.8 |
| 20260506082515 | 43 | 345 | 0.9 | 2.6 | 0.00 | 0.16 | 0.14 | 1 | 1007.8 |
| 20260506082015 | 43 | 234 | 0.9 | 3.5 | 0.00 | 0.16 | 0.14 | 1 | 1007.5 |
| 20260506081513 | 42 | 172 | 0.9 | 2.6 | 0.00 | 0.16 | 0.14 | 1 | 1007.7 |
| 20260506081012 | 42 | 172 | 0.0 | 1.7 | 0.02 | 0.16 | 0.14 | 1 | 1007.7 |
| 20260506080510 | 43 | 172 | 0.0 | 1.7 | 0.05 | 0.16 | 0.14 | 1 | 1007.6 |